Notices

What's New in latest Release from April 7th, 2021:

- Updated Glossary, including Speed of Maximum Gust, and Total Hourly Precipitation

- Updated national and regional climate services offices contacts and prices information

- Addition of station inventory lists for 1981-2010, 1971-2000, and 1961-1990 Normals.

If you haven't already, please take our survey and provide feedback about our website: https://eccc.sondage-survey.ca/f/LanguageSelection.aspx?s=442ca660-fcf1-47c0-95a9-59707d6fd709

Hourly Data Report for April 15, 2019

MIRAMICHI RCS
NEW BRUNSWICK
Current Station Operator: ECCC - MSC

47°00'34.000" N
65°27'54.000" W
33.00 m
8100989
71744
ACQ

Download Data

Hourly Data (April 2019)
Hourly Data Report for April 15, 2019
TIME
LST
Temp Definition
°C
Dew Point Definition
°C
Rel Hum Definition
%
Precip. Amount Definition
mm

Wind Dir Definition
10's deg

Wind Spd Definition
km/h
Visibility Definition
km
Stn Press Definition
kPa
Hmdx Definition


Wind Chill Definition


Weather Definition


00:00 5.4 -3.0 54 0.0 17 9   100.74     LegendNANA
01:00 4.9 -0.7 67 0.0 17 10   100.69     LegendNANA
02:00 3.7 0.6 80 0.0 15 12   100.61     LegendNANA
03:00 2.8 1.3 90 1.1 13 7   100.54     LegendNANA
04:00 2.7 1.5 91 1.5 10 12   100.47     LegendNANA
05:00 2.7 1.7 94 0.4 9 14   100.34     LegendNANA
06:00 2.6 1.7 94 0.5 8 18   100.19     LegendNANA
07:00 2.7 1.8 94 0.5 8 20   100.09     LegendNANA
08:00 2.8 2.0 94 0.7 8 19   100.01     LegendNANA
09:00 3.0 2.2 94 2.5 9 25   99.73     LegendNANA
10:00 3.1 2.3 94 0.0 9 30   99.38     LegendNANA
11:00 3.1 2.3 95 3.3 7 17   99.32     LegendNANA
12:00 2.4 1.8 96 4.9 6 19   99.10     LegendNANA
13:00 1.9 1.3 96 1.8 6 25   98.81     LegendNANA
14:00 1.5 0.9 96 0.6 6 28   98.60     LegendNANA
15:00 1.5 0.9 96 0.3 6 23   98.39     LegendNANA
16:00 1.8 1.3 96 0.3 36 7   98.46     LegendNANA
17:00 2.3 1.4 93 0.0 33 7   98.32     LegendNANA
18:00 2.3 1.3 93 0.0 29 6   98.38     LegendNANA
19:00 2.1 1.3 94 0.5 31 7   98.32     LegendNANA
20:00 1.8 1.0 95 0.0 32 8   98.31     LegendNANA
21:00 1.2 0.3 93 0.0 31 9   98.35     LegendNANA
22:00 0.8 0.0 94 0.0 31 7   98.36     LegendNANA
23:00 0.8 -0.1 94 0.0 30 5   98.34     LegendNANA

Notes on Data Quality.

Legend

  • E = Estimated
  • M = Missing
  • NA = Not Available*
  • [empty] = Indicates an unobserved value
Date modified: